Regional Weather Roundup
Issued by NWS

Home | Current Version | Previous Version | Graphics & Text | Print | Product List | Glossary On
Versions: 1 2 3 4 5 6 7 8 9 10 11 12 13 14 15 16 17 18 19 20 21 22 23 24 25 26 27 28 29 30 31 32 33 34 35 36 37 38 39 40 41 42 43 44 45 46 47 48 49 50
000
ASUS43 KDTX 031810
RWRMI
MICHIGAN HOURLY REGIONAL WEATHER ROUNDUP
NATIONAL WEATHER SERVICE DETROIT/PONTIAC MI
200 PM EDT MON AUG 03 2015

NOTE: "FAIR" INDICATES FEW OR NO CLOUDS BELOW 12,000 FEET WITH NO
SIGNIFICANT WEATHER AND/OR OBSTRUCTION TO VISIBILITY.

MIZ047>049-052>055-059>063-066>070-074>076-081>083-031900-
SOUTHEAST LOWER MICHIGAN

CITY           SKY/WX    TMP DP  RH WIND       PRES   REMARKS
ADRIAN         MOSUNNY   78  63  59 W8        29.82S
6HR MIN TEMP:  64; 6HR MAX TEMP:  79;

ALMA           MOSUNNY   78  52  39 W13G20    29.79R
ANN ARBOR      PTSUNNY   77  62  59 W10       29.79F
BAD AXE        CLOUDY    70  59  67 W12       29.76S
6HR MIN TEMP:  63; 6HR MAX TEMP:  74;

DETROIT CITY   SUNNY     79  57  46 SW8       29.79S
6HR MIN TEMP:  66; 6HR MAX TEMP:  79;

DETROIT        MOSUNNY   81  61  50 W12       29.80S
6HR MIN TEMP:  66; 6HR MAX TEMP:  81;

FLINT          LGT RAIN  72  62  71 NW8       29.79S
6HR MIN TEMP:  67; 6HR MAX TEMP:  79; 6HR PCP:  0.02;

GROSSE ILE     PTSUNNY   81  63  54 W9        29.79S
HILLSDALE      MOSUNNY   79  63  58 W10G16    29.83S
6HR MIN TEMP:  64; 6HR MAX TEMP:  79;

HOWELL         CLOUDY    76  59  57 W9G16     29.79S
6HR MIN TEMP:  64; 6HR MAX TEMP:  78;


CITY           SKY/WX    TMP DP  RH WIND       PRES   REMARKS
JACKSON        PTSUNNY   74  62  66 NW8       29.81S
6HR MIN TEMP:  64; 6HR MAX TEMP:  77;

LAMBERTVILLE   MOSUNNY   79  64  60 W9        29.82R
6HR MIN TEMP:  65; 6HR MAX TEMP:  80;

LANSING        MOSUNNY   74  63  68 W9        29.80R
6HR MIN TEMP:  64; 6HR MAX TEMP:  76; 6HR PCP: TRACE;

LAPEER         NOT AVBL
MASON          PTSUNNY   75  59  56 W9G18     29.79S
MONROE         PTSUNNY   79  66  64 W8        29.80S
MT. CLEMENS    MOSUNNY   79  59  49 W7        29.77S
6HR MIN TEMP:  66; 6HR MAX TEMP:  79;

PONTIAC        MOSUNNY   77  58  51 W10       29.78F
6HR MIN TEMP:  64; 6HR MAX TEMP:  78;

PORT HURON     PTSUNNY   77  59  53 NW6       29.78S
TRI CITIES     CLOUDY    75  58  55 W15       29.78S
6HR MIN TEMP:  63; 6HR MAX TEMP:  76; 6HR PCP:  0.02;

YPSILANTI      MOSUNNY   80  62  54 W8        29.80S
6HR MIN TEMP:  68; 6HR MAX TEMP:  83;

$$
MIZ043>046-050>051-056>058-064>065-071>073-077>080-031900-
SOUTHWEST LOWER MICHIGAN

CITY           SKY/WX    TMP DP  RH WIND       PRES   REMARKS
BATTLE CREEK     N/A    N/A N/A N/A MISG      29.83R
BENTON HARBOR  SUNNY     73  59  61 NW9G18    29.86R
6HR MIN TEMP:  66; 6HR MAX TEMP:  74;

BIG RAPIDS     PTSUNNY   73  46  37 NW7G17    29.79S
6HR MIN TEMP:  59; 6HR MAX TEMP:  76;

COLDWATER      MOSUNNY   76  60  57 W10G16    29.82S
6HR MIN TEMP:  63; 6HR MAX TEMP:  78;

HOLLAND        SUNNY     76  58  53 W9        29.85R
6HR MIN TEMP:  65; 6HR MAX TEMP:  76;

GRAND RAPIDS   MOSUNNY   79  50  36 W17G25    29.81S
6HR MIN TEMP:  63; 6HR MAX TEMP:  79;

KALAMAZOO      MOSUNNY   79  54  41 W16G25    29.83R
6HR MIN TEMP:  65; 6HR MAX TEMP:  80;

MARSHALL       MOSUNNY   79  58  47 W16G26    29.81S
MUSKEGON       MOSUNNY   75  55  49 W13       29.83R
6HR MIN TEMP:  64; 6HR MAX TEMP:  76;

$$
MIZ016>042-031900-
NORTHERN LOWER MICHIGAN

CITY           SKY/WX    TMP DP  RH WIND       PRES   REMARKS
ALPENA         CLOUDY    72  54  53 W7        29.73R
6HR MIN TEMP:  62; 6HR MAX TEMP:  75;

BEAVER ISLAND  CLOUDY    67  54  62 W10       29.76R
6HR MIN TEMP:  59; 6HR MAX TEMP:  71;

BELLAIRE       CLOUDY    71  50  46 W7        29.77S
6HR MIN TEMP:  64; 6HR MAX TEMP:  71;

CADILLAC       PTSUNNY   71  52  52 W9        29.80R
CHARLEVOIX     MOSUNNY   71  54  54 W13       29.80R
FRANKFORT      CLEAR     73  55  53 W6        29.80R
GAYLORD        PTSUNNY   69  50  50 W10       29.77R
6HR MIN TEMP:  62; 6HR MAX TEMP:  71;

GRAYLING       PTSUNNY   70  52  51 W12G21    29.78R
6HR MIN TEMP:  59; 6HR MAX TEMP:  74;

HARBOR SPRINGS MOSUNNY   69  56  62 SW9G17    29.75S
HOUGHTON LAKE  CLOUDY    69  54  58 NW10      29.79R
6HR MIN TEMP:  59; 6HR MAX TEMP:  72;

MANISTEE       PTSUNNY   70  54  56 NW7       29.81S
OSCODA         CLOUDY    74  56  52 W13       29.73R
PELLSTON       MOSUNNY   71  52  50 W15G22    29.75R
6HR MIN TEMP:  59; 6HR MAX TEMP:  72;

TRAVERSE CITY  PTSUNNY   73  51  46 NW8       29.76S
6HR MIN TEMP:  63; 6HR MAX TEMP:  75;

$$
MIZ007>008-015-031900-
EASTERN UPPER MICHIGAN

CITY           SKY/WX    TMP DP  RH WIND       PRES   REMARKS
KINROSS        CLOUDY    64  55  72 NW8       29.72S
6HR MIN TEMP:  54; 6HR MAX TEMP:  66;

MACKINAC ISLAN CLOUDY    67  55  64 W16       29.74R
NEWBERRY       CLOUDY    65  52  64 W12G18    29.74R
6HR MIN TEMP:  55; 6HR MAX TEMP:  67;

S. S. MARIE    CLOUDY    65  51  60 NW14G22   29.72R
6HR MIN TEMP:  59; 6HR MAX TEMP:  66;

$$
MIZ004>006-011>014-085-031900-
CENTRAL UPPER MICHIGAN

CITY           SKY/WX    TMP DP  RH WIND       PRES   REMARKS
MANISTIQUE     CLOUDY    68  52  56 NW7       29.75R
ESCANABA       CLOUDY    72  50  46 NW8       29.74R
6HR MIN TEMP:  57; 6HR MAX TEMP:  72;

MENOMINEE      PTSUNNY   73  50  43 W9        29.76S
6HR MIN TEMP:  57; 6HR MAX TEMP:  73;

SAWYER-GWINN   CLOUDY    66  52  59 NW10      29.76
$$
MIZ001>003-009>011-084-031900-
WESTERN UPPER MICHIGAN

CITY           SKY/WX    TMP DP  RH WIND       PRES   REMARKS
IRON MOUNTAIN  CLOUDY    69  49  48 W16G22    29.76R
6HR MIN TEMP:  60; 6HR MAX TEMP:  73;

HOUGHTON       CLOUDY    63  52  67 W13       29.77R
6HR MIN TEMP:  58; 6HR MAX TEMP:  63; 6HR PCP: TRACE;

COPPER HARBOR    N/A     64  52  64 N8        29.74R
6HR MIN TEMP:  60; 6HR MAX TEMP:  64;

IRONWOOD       MOSUNNY   66  52  59 NW14G22   29.80S
6HR MIN TEMP:  57; 6HR MAX TEMP:  66;

$$

ABBREVIATIONS USED IN REMARKS
   TC - TEMPERATURE IN CELSIUS
  WCI - WIND CHILL INDEX
   HX - HEAT INDEX
  VSB - VISIBILITY




USA.gov is the U.S. government's official web portal to all federal, state and local government web resources and services.